TimeCDT,TemperatureF,Dew PointF,Humidity,Sea Level PressureIn,VisibilityMPH,Wind Direction,Wind SpeedMPH,Gust SpeedMPH,PrecipitationIn,Events,Conditions,WindDirDegrees,DateUTC
12:56 AM,77.0,73.9,90,29.86,10.0,Calm,Calm,-,N/A,,Clear,0,2013-08-31 05:56:00
1:56 AM,74.8,73.9,97,29.86,10.0,SSE,4.6,-,N/A,,Clear,160,2013-08-31 06:56:00
2:56 AM,75.9,73.9,94,29.85,10.0,Calm,Calm,-,N/A,,Scattered Clouds,0,2013-08-31 07:56:00
3:56 AM,75.9,74.8,96,29.85,10.0,SW,4.6,-,N/A,,Mostly Cloudy,220,2013-08-31 08:56:00
4:56 AM,74.8,74.8,100,29.85,10.0,Calm,Calm,-,N/A,,Clear,0,2013-08-31 09:56:00
5:56 AM,75.9,74.8,96,29.87,10.0,Calm,Calm,-,N/A,,Mostly Cloudy,0,2013-08-31 10:56:00
6:56 AM,75.9,75.9,100,29.88,7.0,Variable,4.6,-,N/A,Thunderstorm,Mostly Cloudy,0,2013-08-31 11:56:00
7:03 AM,75.2,75.2,100,29.90,5.0,SSE,6.9,-,0.07,Rain-Thunderstorm,Thunderstorms and Rain,160,2013-08-31 12:03:00
7:56 AM,75.9,75.9,100,29.88,7.0,South,9.2,-,0.07,Rain-Thunderstorm,Rain,180,2013-08-31 12:56:00
8:56 AM,81.0,77.9,90,29.88,8.0,SW,8.1,-,0.00,,Clear,220,2013-08-31 13:56:00
9:56 AM,82.9,77.0,82,29.88,10.0,SSW,8.1,-,N/A,,Clear,210,2013-08-31 14:56:00
10:56 AM,86.9,77.9,74,29.88,10.0,SSW,9.2,-,0.01,,Clear,210,2013-08-31 15:56:00
11:56 AM,90.0,79.0,70,29.86,10.0,SSW,6.9,-,N/A,,Clear,210,2013-08-31 16:56:00
12:56 PM,93.9,79.0,62,29.85,10.0,SSW,9.2,-,N/A,,Partly Cloudy,210,2013-08-31 17:56:00
1:56 PM,95.0,77.9,58,29.84,10.0,SW,11.5,-,N/A,,Scattered Clouds,220,2013-08-31 18:56:00
2:56 PM,95.9,77.0,54,29.81,7.0,WSW,9.2,-,N/A,,Scattered Clouds,240,2013-08-31 19:56:00
3:56 PM,95.9,77.0,54,29.78,8.0,SW,13.8,-,N/A,,Scattered Clouds,230,2013-08-31 20:56:00
4:56 PM,93.9,75.9,56,29.75,7.0,SW,15.0,-,N/A,,Scattered Clouds,220,2013-08-31 21:56:00
5:56 PM,91.9,75.9,59,29.77,7.0,SW,10.4,-,N/A,,Clear,220,2013-08-31 22:56:00
6:56 PM,88.0,77.0,70,29.78,7.0,SW,8.1,-,N/A,,Clear,220,2013-08-31 23:56:00
7:56 PM,82.9,77.0,82,29.81,10.0,SSW,5.8,-,0.00,,Clear,210,2013-09-01 00:56:00
8:56 PM,81.9,77.0,85,29.80,10.0,South,6.9,-,N/A,,Clear,190,2013-09-01 01:56:00
9:56 PM,79.9,77.0,91,29.81,10.0,South,5.8,-,N/A,,Clear,180,2013-09-01 02:56:00
10:56 PM,79.0,77.0,94,29.81,10.0,SE,6.9,-,N/A,,Clear,140,2013-09-01 03:56:00
11:56 PM,74.8,70.0,85,29.81,10.0,SE,20.7,25.3,N/A,,Partly Cloudy,130,2013-09-01 04:56:00